Current Version              Previous Version:    01  02  03  04  05  06  07  08  09  10  11  12  13  14  15  16  17  18  19  20  21  22  23  24  25  26  27  28  29  30  
   31  32  33  34  35  36  37  38  39  40  41  42  43  44  45  46  47  48  49  50  51  52  53  54  55  56  57  58  59  60  

[Printable]
155
ASUS44 KLUB 211510
RWRTX
WEST TEXAS WEATHER ROUNDUP
NATIONAL WEATHER SERVICE LUBBOCK TX
1000 AM CDT THU AUG 21 2014

NOTE: "FAIR" INDICATES FEW OR NO CLOUDS BELOW 12,000 FEET WITH NO
SIGNIFICANT WEATHER AND/OR OBSTRUCTIONS TO VISIBILITY.

TXZ004-006>008-010-012-014-016-OKZ002-211600-
TEXAS PANHANDLE/OKLAHOMA PANHANDLE

CITY           SKY/WX    TMP DP  RH WIND       PRES   REMARKS
AMARILLO       SUNNY     80  64  58 S24       30.02F
BORGER         SUNNY     83  62  49 SW18G29   29.98S
CANADIAN       MOSUNNY   83  66  57 SW12      29.95S
DALHART        MOSUNNY   80  60  50 SW13      30.03S
DUMAS          SUNNY     80  61  53 SW15      30.01R
GUYMON         SUNNY     84  62  47 SW21G26   29.93S
HEREFORD       SUNNY     76  66  72 S16       30.05S
PAMPA          SUNNY     81  59  47 SW23G31   30.00S
PERRYTON       SUNNY     84  63  49 SW23G31   29.96S
$$

TXZ026-029-035-045-048-211600-
SOUTHERN PANHANDLE/SOUTH PLAINS/ROLLING PLAINS

CITY           SKY/WX    TMP DP  RH WIND       PRES   REMARKS
CHILDRESS      MOSUNNY   85  68  56 S20G25    29.98S
SEMINOLE       SUNNY     81  63  54 S16       30.06S
LUBBOCK        MOSUNNY   78  66  66 S22       30.04R
PLAINVIEW      MOSUNNY   78  64  63 S17G23    30.03S
SNYDER         MOSUNNY   79  69  71 S20G26    30.05R
$$

TXZ052-054-060>062-072-078-127-140-154-169-211600-
PERMIAN BASIN/CONCHO VALLEY/BIG COUNTRY/EDWARDS PLATEAU

CITY           SKY/WX    TMP DP  RH WIND       PRES   REMARKS
ABILENE        MOSUNNY   84  71  65 S21G28    30.03S
BIG SPRING     SUNNY     82  68  63 S23       30.06R
BROWNWOOD      SUNNY     84  72  65 S16       30.05S
JUNCTION       PTSUNNY   81  69  67 S14       30.07R
MIDLAND        SUNNY     80  69  69 S20G25    30.04R
ODESSA         SUNNY     79  67  66 S18       30.05S
SAN ANGELO     PTSUNNY   83  71  67 S13G23    30.04S
SONORA         CLOUDY    81  70  69 S14       30.11S
SWEETWATER     PTSUNNY   82  70  66 S23G31    30.07R
WINK           MOSUNNY   83  63  50 S14       30.01S
$$

TXZ055-058-074-075-080-082-211600-
FAR WEST/SOUTHWEST MOUNTAINS/TRANS PECOS

CITY           SKY/WX    TMP DP  RH WIND       PRES   REMARKS
ALPINE         PTSUNNY   75  62  62 SW7       30.21R
DRYDEN           N/A     86  69  56 SE9       30.03R
EL PASO        MOSUNNY   77  52  41 S6        30.08R
FORT STOCKTON  SUNNY     82  64  54 S13       30.05R
GUADALUPE PASS SUNNY     74  52  46 W17       30.19R
MARFA          MOSUNNY   72  63  73 S5        30.21S
PECOS          SUNNY     81  63  54 CALM      30.01R
PRESIDIO       FAIR      79  63  57 SE5       30.07R
$$

TXZ014-016-019-021>030-083-211600
TEXAS TECH WEST TEXAS MESONET/TEXAS PANHANDLE/NORTHERN SOUTH PLAINS

CITY           SKY/WX    TMP DP  RH WIND       PRES   REMARKS
ABERNATHY 5ENE   N/A     79  65  61 S20       30.06R
AMARILLO 9NNE    N/A     82  64  53 S21       29.99S
AMARILLO 7SSE    N/A     82  64  55 SW15      30.04S
AMHERST 1NE      N/A     76  64  65 S13       30.06R
BOOTLEG 11WNW    N/A     79  61  53 SW14      30.07S
CANADIAN 6E      N/A     82  65  56 S12       29.96R
CAPROCK CYN SP   N/A     83  66  56 S23       30.00S
CHILDRESS 2NNE   N/A     86  68  54 S16       29.97S
CLARENDON 2WSW   N/A     80  63  56 S15       30.00S
CLAUDE 12SW      N/A     80  63  56 S14       30.03S
DIMMITT 2NE      N/A     73  63  70 S16       30.06S
FLOYDADA 2NNE    N/A     76  66  71 S16       30.04R
FRIONA 2NE       N/A     76  63  64 S15       30.06F
GOODLETT 3W      N/A     86  67  53 S18       29.96S
HART 3N          N/A     74  63  68 S13       30.06R
HEREFORD 2NW     N/A     75  62  64 S14       30.05S
MCLEAN 1E        N/A     78  64  60 S18       29.98S
MEMPHIS 1NE      N/A     84  67  56 S13       29.98S
MULESHOE 2SSW    N/A     78  63  60 S10       30.05S
OLTON 6S         N/A     78  62  57 S17       30.04S
PALO DURO SP     N/A     80  62  54 S14       30.05S
PAMPA 2E         N/A     80  62  55 S20       30.00S
PLAINVIEW 1S     N/A     78  65  63 S17       30.03F
SILVERTON 7ESE   N/A     81  65  58 S18       30.03R
TULIA 2ENE       N/A     77  63  62 S20       30.03S
TURKEY 2WSW      N/A     83  67  59 S20       29.99R
UMBARGER 3NNE    N/A     78  64  60 S20       30.04S
$$

TXZ033>036-039>041-045>048-211600
TEXAS TECH WEST TEXAS MESONET/SOUTH PLAINS

CITY           SKY/WX    TMP DP  RH WIND       PRES   REMARKS
AIKEN 3WSW       N/A     79  67  65 S17       30.05S
ANTON 6SSW       N/A     79  63  58 S23       30.04R
BROWNFIELD 2S    N/A     80  63  56 S21       30.05S
DENVR CTY 7WNW   N/A     77  59  53 S15       30.06R
GAIL 2ESE        N/A     81  69  66 S16       30.03R
LAMESA 2SE       N/A     79  68  69 S20       30.04S
LEVELLAND 4S     N/A     78  62  59 S15       30.05R
LUBBOCK 3WNW     N/A     78  64  62 S15       30.04S
MORTON 1ENE      N/A     77  63  61 S15       30.05S
ODONNELL 1N      N/A     76  68  74 S16       30.05R
PLAINS 3N        N/A     76  61  60 S14       30.06R
RALLS 1SE        N/A     75  68  77 S14       30.05S
REESE CENTER     N/A     78  64  62 S20       30.04R
SEAGRAVES 1SW    N/A     78  63  61 S17       30.05R
SEMINOLE 2NNE    N/A     79  63  57 S14       30.04S
SLATON 2NE       N/A     75  67  76 S20       30.04S
SNYDER 3E        N/A     80  69  68 S18G29    30.03S
SUNDOWN 8SW      N/A     79  62  56 S17       30.06R
TAHOKA 3NNE      N/A     78  67  67 S20       30.04R
WOLFFORTH 6SSW   N/A     77  65  65 S14       30.05R
$$

TXZ031-032-036>038-042>044-211600-
TEXAS TECH WEST TEXAS MESONET/ROLLING PLAINS

CITY           SKY/WX    TMP DP  RH WIND       PRES   REMARKS
ASPERMONT 3NE    N/A     84  70  61 S22       30.00S
FLUVANNA 3WNW    N/A     78  68  72 S21       30.03S
GRAHAM 5SSW      N/A     78  67  71 S17       30.04R
GUTHRIE 10WSW    N/A     84  68  59 S20       29.98F
HASKELL 1NW      N/A     84  67  57 S21       30.00S
JAYTON 1SSE      N/A     83  69  61 S18       30.00S
KNOX CITY 3NW    N/A     85  67  55 S20       29.99S
LK A HENRY 1NW   N/A     81  69  66 S16       30.01S
NORTHFIELD 1S    N/A     83  69  62 S20       29.97S
ODELL 4ENE       N/A     86  70  58 S22       29.98S
PADUCAH 10SW     N/A     82  69  63 S20       29.98S
POST 1NE         N/A     79  67  65 S18       30.02S
RRING SPRGS 3N   N/A     80  69  69 S20       30.01S
SEYMOUR 3NW      N/A     85  68  55 S16       29.98S
SPUR 1W          N/A     82  67  60 S17       30.00S
WEINERT 2NNE     N/A     84  70  63 S21       30.00S
WHITE RVR 6NE    N/A     79  69  71 S18       30.02S
$$

TXZ052-054-060>062-072-078-127-140-154-169-211600-
TEXAS TECH WEST TEXAS MESONET/PERMIAN BASIN/
CONCHO VALLEY/BIG COUNTRY/EDWARDS PLATEAU

CITY           SKY/WX    TMP DP  RH WIND       PRES   REMARKS
COYANOSA 2N      N/A     87  63  44 S12       30.01F
JUNCTION 1SSW    N/A     81  70  68 S12       30.07S
MERTZON 3NNE     N/A     82  71  70 S16       30.06R
SAN ANGELO 7NW   N/A     81  70  68 S12       30.04S
STRLNG CT 4WSW   N/A     80  70  72 S17       30.06R
ST LAWRNCE 5SW   N/A     79  68  68 S20       30.05S
SWEETWATR 11SW   N/A     80  70  73 S18       30.06S
WALL 1E          N/A     81  69  67 S16       30.05S
$$

TXZ055-058-074-075-080-082-211600-
TEXAS TECH WEST TEXAS MESONET/FAR WEST/SOUTHWEST MOUNTAINS/TRANS PECOS

CITY           SKY/WX    TMP DP  RH WIND       PRES   REMARKS
PRSMN GAP BBNP   N/A     80  66  62 NE3       30.06F
GUADLPE MTN NP   N/A     80  44  27 NW7       30.19R
$$